MAS1436 WMKK-WMKL

Flight info

Callsign MAS1436
Flight time 0h 44m
Altitude 28000
Route ATIMU1E ATIMU Y506 VPG W525 KAPKO KAPKO1E
Aircraft B738/M-SDE2E3FGHIRWXY/LB1

Departure

Time 2026-04-25 07:25
Airport Kuala Lumpur International Airport (WMKK)

Arrival

Time 2026-04-25 08:10
Airport Langkawi International Airport (WMKL)
Time Latitude Longitude Altitude Speed Heading
2026-04-25 06:55 2.75483 101.70758 72 ft 0 kts 146°
2026-04-25 07:09 2.75492 101.70752 72 ft 4 kts 139°
2026-04-25 07:10 2.75507 101.70732 68 ft 4 kts 99°
2026-04-25 07:10 2.75505 101.70710 72 ft 2 kts 56°
2026-04-25 07:10 2.75504 101.70710 72 ft 0 kts 56°
2026-04-25 07:16 2.75508 101.70715 72 ft 3 kts 56°
2026-04-25 07:16 2.75532 101.70752 72 ft 8 kts 56°
2026-04-25 07:17 2.75572 101.70795 72 ft 9 kts 26°
2026-04-25 07:17 2.75626 101.70828 72 ft 10 kts 49°
2026-04-25 07:17 2.75670 101.70890 72 ft 12 kts 56°
2026-04-25 07:17 2.75720 101.70965 72 ft 14 kts 56°
2026-04-25 07:18 2.75777 101.71051 67 ft 16 kts 56°
2026-04-25 07:18 2.75839 101.71149 67 ft 17 kts 64°
2026-04-25 07:18 2.75888 101.71255 67 ft 17 kts 104°
2026-04-25 07:18 2.75804 101.71328 73 ft 16 kts 145°
2026-04-25 07:19 2.75716 101.71388 72 ft 15 kts 146°
2026-04-25 07:19 2.75631 101.71445 64 ft 14 kts 146°
2026-04-25 07:19 2.75550 101.71500 69 ft 14 kts 146°
2026-04-25 07:19 2.75472 101.71552 69 ft 13 kts 147°
2026-04-25 07:20 2.75397 101.71601 64 ft 13 kts 146°
2026-04-25 07:20 2.75325 101.71650 70 ft 12 kts 146°
2026-04-25 07:20 2.75253 101.71697 71 ft 12 kts 146°
2026-04-25 07:20 2.75182 101.71745 72 ft 13 kts 146°
2026-04-25 07:21 2.75100 101.71800 67 ft 15 kts 145°
2026-04-25 07:21 2.75012 101.71860 74 ft 13 kts 146°
2026-04-25 07:21 2.74947 101.71902 73 ft 11 kts 146°
2026-04-25 07:21 2.74887 101.71943 77 ft 10 kts 146°
2026-04-25 07:22 2.74829 101.71983 77 ft 10 kts 146°
2026-04-25 07:22 2.74773 101.72022 74 ft 10 kts 136°
2026-04-25 07:22 2.74767 101.72085 78 ft 9 kts 70°
2026-04-25 07:22 2.74801 101.72140 73 ft 9 kts 56°
2026-04-25 07:23 2.74847 101.72180 77 ft 9 kts 21°
2026-04-25 07:23 2.74896 101.72167 73 ft 0 kts 325°
2026-04-25 07:24 2.74934 101.72140 72 ft 32 kts 325°
2026-04-25 07:24 2.75353 101.71859 74 ft 111 kts 326°
2026-04-25 07:25 2.76179 101.71304 113 ft 170 kts 326°
2026-04-25 07:25 2.77197 101.70637 799 ft 177 kts 326°
2026-04-25 07:25 2.78263 101.69957 1515 ft 191 kts 325°
2026-04-25 07:25 2.79381 101.69207 2242 ft 203 kts 325°
2026-04-25 07:26 2.80728 101.68526 2542 ft 232 kts 342°
2026-04-25 07:26 2.82282 101.67902 2956 ft 248 kts 327°
2026-04-25 07:26 2.83608 101.66750 3447 ft 262 kts 318°
2026-04-25 07:26 2.85011 101.65481 3943 ft 279 kts 321°
2026-04-25 07:27 2.86480 101.64200 4869 ft 280 kts 321°
2026-04-25 07:27 2.87957 101.62936 5832 ft 281 kts 322°
2026-04-25 07:27 2.89484 101.61651 6572 ft 290 kts 322°
2026-04-25 07:27 2.91032 101.60360 7465 ft 291 kts 322°
2026-04-25 07:28 2.92604 101.59058 8231 ft 298 kts 322°
2026-04-25 07:28 2.94193 101.57748 9230 ft 291 kts 322°
2026-04-25 07:28 2.95725 101.56487 10430 ft 279 kts 322°
2026-04-25 07:28 2.97198 101.55278 11437 ft 273 kts 322°
2026-04-25 07:29 2.98669 101.54075 12152 ft 278 kts 323°
2026-04-25 07:29 3.00161 101.52856 12909 ft 280 kts 323°
2026-04-25 07:29 3.01680 101.51616 13662 ft 284 kts 323°
2026-04-25 07:29 3.03220 101.50359 14270 ft 289 kts 323°
2026-04-25 07:30 3.04785 101.49081 14979 ft 290 kts 323°
2026-04-25 07:30 3.06344 101.47808 15760 ft 288 kts 323°
2026-04-25 07:30 3.07898 101.46539 16479 ft 290 kts 323°
2026-04-25 07:30 3.09471 101.45256 17107 ft 294 kts 323°
2026-04-25 07:31 3.11067 101.43954 17752 ft 298 kts 323°
2026-04-25 07:31 3.12681 101.42637 18352 ft 301 kts 323°
2026-04-25 07:31 3.14313 101.41305 18922 ft 304 kts 323°
2026-04-25 07:31 3.15961 101.39960 19507 ft 307 kts 323°
2026-04-25 07:32 3.17619 101.38606 20079 ft 309 kts 323°
2026-04-25 07:32 3.19292 101.37241 20664 ft 312 kts 323°
2026-04-25 07:32 3.20981 101.35862 21227 ft 315 kts 323°
2026-04-25 07:32 3.22665 101.34487 21772 ft 318 kts 323°
2026-04-25 07:33 3.24386 101.33082 22325 ft 321 kts 323°
2026-04-25 07:33 3.26147 101.31644 22883 ft 324 kts 323°
2026-04-25 07:33 3.27875 101.30233 23426 ft 327 kts 323°
2026-04-25 07:33 3.29645 101.28789 23868 ft 330 kts 323°
2026-04-25 07:34 3.31455 101.27311 24321 ft 333 kts 323°
2026-04-25 07:34 3.33252 101.25842 24767 ft 335 kts 323°
2026-04-25 07:34 3.35062 101.24364 25218 ft 338 kts 323°
2026-04-25 07:34 3.36890 101.22872 25660 ft 341 kts 322°
2026-04-25 07:35 3.38736 101.21364 26101 ft 343 kts 322°
2026-04-25 07:35 3.40567 101.19867 26547 ft 345 kts 322°
2026-04-25 07:35 3.42432 101.18344 27041 ft 346 kts 322°
2026-04-25 07:35 3.44313 101.16807 27587 ft 344 kts 322°
2026-04-25 07:36 3.46174 101.15287 27834 ft 347 kts 322°
2026-04-25 07:36 3.48019 101.13779 27812 ft 344 kts 322°
2026-04-25 07:36 3.49892 101.12248 27835 ft 343 kts 322°
2026-04-25 07:36 3.51747 101.10732 27839 ft 345 kts 322°
2026-04-25 07:37 3.53581 101.09234 27845 ft 346 kts 322°
2026-04-25 07:37 3.55471 101.07690 27847 ft 346 kts 322°
2026-04-25 07:37 3.57315 101.06182 27843 ft 347 kts 322°
2026-04-25 07:37 3.59211 101.04633 27843 ft 348 kts 322°
2026-04-25 07:38 3.61064 101.03118 27844 ft 348 kts 322°
2026-04-25 07:38 3.62965 101.01564 27840 ft 348 kts 322°
2026-04-25 07:38 3.64818 101.00049 27835 ft 348 kts 322°
2026-04-25 07:38 3.66642 100.98578 27833 ft 347 kts 325°
2026-04-25 07:39 3.68698 100.97343 27829 ft 343 kts 338°
2026-04-25 07:39 3.70909 100.96379 27865 ft 353 kts 338°
2026-04-25 07:39 3.73212 100.95381 27859 ft 367 kts 338°
2026-04-25 07:39 3.75592 100.94343 27870 ft 380 kts 338°
2026-04-25 07:40 3.78053 100.93261 27863 ft 393 kts 338°
2026-04-25 07:40 3.80593 100.92138 27860 ft 405 kts 338°
2026-04-25 07:40 3.83195 100.90981 27858 ft 412 kts 338°
2026-04-25 07:40 3.85804 100.89818 27840 ft 409 kts 338°
2026-04-25 07:41 3.88399 100.88660 27829 ft 407 kts 338°
2026-04-25 07:41 3.90982 100.87507 27832 ft 405 kts 338°
2026-04-25 07:41 3.93549 100.86361 27837 ft 404 kts 338°
2026-04-25 07:41 3.96111 100.85219 27830 ft 402 kts 338°
2026-04-25 07:42 3.98667 100.84079 27834 ft 401 kts 338°
2026-04-25 07:42 4.01204 100.82948 27837 ft 401 kts 338°
2026-04-25 07:42 4.03755 100.81810 27841 ft 401 kts 338°
2026-04-25 07:42 4.06304 100.80673 27846 ft 401 kts 338°
2026-04-25 07:43 4.08856 100.79535 27842 ft 402 kts 338°
2026-04-25 07:43 4.11413 100.78394 27843 ft 403 kts 338°
2026-04-25 07:43 4.13978 100.77250 27844 ft 404 kts 338°
2026-04-25 07:43 4.16547 100.76104 27842 ft 405 kts 338°
2026-04-25 07:44 4.19123 100.74953 27844 ft 405 kts 338°
2026-04-25 07:44 4.21701 100.73798 27850 ft 406 kts 338°
2026-04-25 07:44 4.24279 100.72643 27829 ft 406 kts 338°
2026-04-25 07:44 4.26860 100.71485 27828 ft 406 kts 337°
2026-04-25 07:45 4.29442 100.70327 27834 ft 406 kts 337°
2026-04-25 07:45 4.32018 100.69171 27831 ft 406 kts 337°
2026-04-25 07:45 4.34599 100.68013 27830 ft 406 kts 338°
2026-04-25 07:45 4.37172 100.66859 27834 ft 405 kts 337°
2026-04-25 07:46 4.39747 100.65704 27834 ft 405 kts 337°
2026-04-25 07:46 4.42313 100.64553 27838 ft 404 kts 337°
2026-04-25 07:46 4.44048 100.63774 27841 ft 404 kts 337°
2026-04-25 07:46 4.47450 100.62248 27841 ft 404 kts 337°
2026-04-25 07:47 4.49147 100.61486 27844 ft 404 kts 337°
2026-04-25 07:47 4.51706 100.60338 27846 ft 403 kts 337°
2026-04-25 07:47 4.54265 100.59189 27851 ft 403 kts 337°
2026-04-25 07:47 4.56825 100.58040 27856 ft 403 kts 337°
2026-04-25 07:48 4.59379 100.56894 27848 ft 403 kts 337°
2026-04-25 07:48 4.61934 100.55747 27848 ft 403 kts 337°
2026-04-25 07:48 4.64497 100.54597 27851 ft 403 kts 337°
2026-04-25 07:48 4.67051 100.53450 27854 ft 402 kts 337°
2026-04-25 07:49 4.69593 100.52309 27667 ft 399 kts 337°
2026-04-25 07:49 4.72099 100.51183 27415 ft 392 kts 338°
2026-04-25 07:49 4.74586 100.50065 27040 ft 391 kts 338°
2026-04-25 07:49 4.77057 100.48955 26684 ft 388 kts 338°
2026-04-25 07:50 4.79511 100.47853 26321 ft 385 kts 338°
2026-04-25 07:50 4.81949 100.46759 25959 ft 383 kts 338°
2026-04-25 07:50 4.84369 100.45672 25602 ft 381 kts 338°
2026-04-25 07:50 4.86784 100.44587 25222 ft 379 kts 338°
2026-04-25 07:51 4.89188 100.43507 24861 ft 377 kts 338°
2026-04-25 07:51 4.91580 100.42432 24473 ft 376 kts 338°
2026-04-25 07:51 4.93964 100.41361 24111 ft 375 kts 338°
2026-04-25 07:51 4.96343 100.40292 23741 ft 374 kts 338°
2026-04-25 07:52 4.98716 100.39226 23365 ft 373 kts 338°
2026-04-25 07:52 5.01069 100.38168 22953 ft 372 kts 338°
2026-04-25 07:52 5.03420 100.37111 22572 ft 369 kts 338°
2026-04-25 07:52 5.05755 100.36061 22193 ft 366 kts 338°
2026-04-25 07:53 5.08074 100.35019 21836 ft 364 kts 338°
2026-04-25 07:53 5.10377 100.33983 21479 ft 361 kts 338°
2026-04-25 07:53 5.12663 100.32955 21127 ft 359 kts 338°
2026-04-25 07:53 5.14939 100.31931 20779 ft 357 kts 338°
2026-04-25 07:54 5.17201 100.30914 20391 ft 355 kts 338°
2026-04-25 07:54 5.19447 100.29904 20048 ft 353 kts 338°
2026-04-25 07:54 5.21687 100.28896 19701 ft 352 kts 338°
2026-04-25 07:54 5.23915 100.27894 19344 ft 351 kts 338°
2026-04-25 07:55 5.26140 100.26893 18994 ft 350 kts 338°
2026-04-25 07:55 5.28355 100.25894 18649 ft 349 kts 338°
2026-04-25 07:55 5.30553 100.24864 18327 ft 347 kts 336°
2026-04-25 07:55 5.32730 100.23819 17960 ft 347 kts 336°
2026-04-25 07:56 5.34905 100.22769 17585 ft 346 kts 336°
2026-04-25 07:56 5.37070 100.21726 17223 ft 344 kts 336°
2026-04-25 07:56 5.39219 100.20692 16876 ft 342 kts 336°
2026-04-25 07:56 5.41361 100.19663 16537 ft 340 kts 336°
2026-04-25 07:57 5.43492 100.18640 16186 ft 338 kts 336°
2026-04-25 07:57 5.45610 100.17629 15864 ft 337 kts 336°
2026-04-25 07:57 5.47723 100.16616 15520 ft 336 kts 336°
2026-04-25 07:57 5.49826 100.15603 15173 ft 334 kts 335°
2026-04-25 07:58 5.51834 100.14375 14663 ft 340 kts 325°
2026-04-25 07:58 5.53722 100.12934 14252 ft 341 kts 323°
2026-04-25 07:58 5.55575 100.11450 13893 ft 340 kts 322°
2026-04-25 07:58 5.57422 100.09967 13543 ft 339 kts 322°
2026-04-25 07:59 5.59263 100.08504 13170 ft 337 kts 323°
2026-04-25 07:59 5.61088 100.07068 13014 ft 328 kts 323°
2026-04-25 07:59 5.62858 100.05688 12992 ft 318 kts 323°
2026-04-25 07:59 5.64605 100.04335 12993 ft 317 kts 323°
2026-04-25 08:00 5.66362 100.02978 13010 ft 321 kts 323°
2026-04-25 08:00 5.68142 100.01607 13007 ft 323 kts 323°
2026-04-25 08:00 5.69924 100.00236 12998 ft 322 kts 323°
2026-04-25 08:00 5.71632 99.98923 12995 ft 321 kts 323°
2026-04-25 08:01 5.73398 99.97564 12995 ft 320 kts 323°
2026-04-25 08:01 5.75162 99.96209 12997 ft 319 kts 323°
2026-04-25 08:01 5.76922 99.94856 12999 ft 318 kts 323°
2026-04-25 08:01 5.78680 99.93505 13001 ft 318 kts 323°
2026-04-25 08:02 5.80443 99.92149 13000 ft 319 kts 323°
2026-04-25 08:02 5.82205 99.90795 13001 ft 319 kts 323°
2026-04-25 08:02 5.83971 99.89438 13003 ft 320 kts 323°
2026-04-25 08:02 5.85738 99.88079 13017 ft 321 kts 323°
2026-04-25 08:03 5.87517 99.86712 12991 ft 323 kts 323°
2026-04-25 08:03 5.89302 99.85338 12999 ft 323 kts 323°
2026-04-25 08:03 5.91087 99.83966 12997 ft 323 kts 323°
2026-04-25 08:03 5.92867 99.82597 12998 ft 323 kts 323°
2026-04-25 08:04 5.94647 99.81228 13006 ft 323 kts 323°
2026-04-25 08:04 5.96406 99.79875 12975 ft 320 kts 323°
2026-04-25 08:04 5.98166 99.78521 12639 ft 314 kts 323°
2026-04-25 08:04 5.99922 99.77171 11608 ft 329 kts 323°
2026-04-25 08:05 6.01783 99.75739 10674 ft 340 kts 323°
2026-04-25 08:05 6.03674 99.74250 9739 ft 350 kts 322°
2026-04-25 08:05 6.05593 99.72764 8719 ft 356 kts 324°
2026-04-25 08:05 6.07541 99.71292 8322 ft 341 kts 324°
2026-04-25 08:06 6.09372 99.69894 8174 ft 320 kts 323°
2026-04-25 08:06 6.11103 99.68563 7661 ft 314 kts 323°
2026-04-25 08:06 6.12850 99.67219 6966 ft 316 kts 324°
2026-04-25 08:06 6.14596 99.65876 6271 ft 317 kts 324°
2026-04-25 08:07 6.16390 99.64599 5535 ft 315 kts 334°
2026-04-25 08:07 6.18472 99.64076 4804 ft 308 kts
2026-04-25 08:07 6.20503 99.64617 4091 ft 302 kts 28°
2026-04-25 08:07 6.22304 99.65685 3397 ft 300 kts 33°
2026-04-25 08:08 6.24088 99.66775 2719 ft 298 kts 32°
2026-04-25 08:08 6.25747 99.67876 2469 ft 273 kts 35°
2026-04-25 08:08 6.27251 99.68963 1943 ft 260 kts 36°
2026-04-25 08:08 6.28720 99.70009 1085 ft 260 kts 33°
2026-04-25 08:09 6.30220 99.71012 471 ft 253 kts 33°
2026-04-25 08:09 6.31626 99.71953 101 ft 230 kts 33°
2026-04-25 08:09 6.32866 99.72799 35 ft 200 kts 34°
2026-04-25 08:09 6.33882 99.73482 36 ft 141 kts 34°
2026-04-25 08:10 6.34340 99.73794 36 ft 17 kts 20°
2026-04-25 08:10 6.34432 99.73767 37 ft 9 kts 308°
2026-04-25 08:10 6.34445 99.73696 35 ft 12 kts 251°
2026-04-25 08:10 6.34383 99.73629 35 ft 14 kts 214°
2026-04-25 08:11 6.34292 99.73572 34 ft 16 kts 212°
2026-04-25 08:11 6.34198 99.73504 36 ft 17 kts 216°
2026-04-25 08:11 6.34119 99.73410 35 ft 18 kts 242°
2026-04-25 08:11 6.34098 99.73323 35 ft 6 kts 282°
2026-04-25 08:12 6.34117 99.73292 35 ft 3 kts 304°
2026-04-25 08:12 6.34124 99.73282 33 ft 0 kts 304°